FWG117 EDDG-EDDC

Flight info

Callsign FWG117
Flight time N/A
Altitude 33000
Route OSNAD1E/07 OSNAD L980 SAS DCT ABGUS Z94 GALMA Z21 RIVSA
Aircraft A320/M-SDE3FGHIRWY/LB1

Departure

Time 2026-05-08 18:51
Airport Münster Osnabrück Airport (EDDG)

Arrival

Time N/A
Airport Dresden Airport (EDDC)
Time Latitude Longitude Altitude Speed Heading
2026-05-08 18:26 52.13359 7.69523 168 ft 0 kts 341°
2026-05-08 18:46 52.13383 7.69510 168 ft 6 kts 340°
2026-05-08 18:47 52.13413 7.69452 168 ft 8 kts 278°
2026-05-08 18:47 52.13401 7.69344 168 ft 11 kts 255°
2026-05-08 18:47 52.13419 7.69209 168 ft 14 kts 284°
2026-05-08 18:47 52.13407 7.69038 168 ft 17 kts 250°
2026-05-08 18:48 52.13367 7.68839 168 ft 19 kts 248°
2026-05-08 18:48 52.13324 7.68632 168 ft 21 kts 249°
2026-05-08 18:48 52.13271 7.68392 168 ft 24 kts 251°
2026-05-08 18:48 52.13213 7.68115 168 ft 27 kts 251°
2026-05-08 18:49 52.13148 7.67807 168 ft 30 kts 251°
2026-05-08 18:49 52.13081 7.67498 168 ft 23 kts 250°
2026-05-08 18:49 52.13036 7.67295 168 ft 17 kts 252°
2026-05-08 18:49 52.13048 7.67125 168 ft 14 kts 311°
2026-05-08 18:50 52.13110 7.67054 167 ft 12 kts 343°
2026-05-08 18:50 52.13167 7.67087 166 ft 0 kts 62°
2026-05-08 18:50 52.13168 7.67092 166 ft 0 kts 66°
2026-05-08 18:50 52.13169 7.67094 166 ft 2 kts 66°
2026-05-08 18:51 52.13253 7.67486 165 ft 87 kts 70°
2026-05-08 18:51 52.13553 7.68881 176 ft 168 kts 69°
2026-05-08 18:51 52.13964 7.70906 669 ft 204 kts 71°
2026-05-08 18:51 52.14417 7.73094 2011 ft 202 kts 73°
2026-05-08 18:52 52.14895 7.75359 3139 ft 222 kts 72°
2026-05-08 18:52 52.15410 7.77790 4354 ft 231 kts 71°
2026-05-08 18:52 52.15946 7.80310 5566 ft 240 kts 71°
2026-05-08 18:52 52.16413 7.82961 6743 ft 249 kts 81°
2026-05-08 18:53 52.16660 7.85792 7918 ft 255 kts 83°
2026-05-08 18:53 52.16892 7.88681 9004 ft 260 kts 83°
2026-05-08 18:53 52.17130 7.91724 9628 ft 280 kts 83°
2026-05-08 18:53 52.17379 7.94911 10433 ft 290 kts 83°
2026-05-08 18:54 52.17642 7.98263 10800 ft 314 kts 83°
2026-05-08 18:54 52.17929 8.01918 11120 ft 337 kts 83°
2026-05-08 18:54 52.18238 8.05827 11515 ft 356 kts 83°
2026-05-08 18:54 52.18530 8.09565 12150 ft 363 kts 84°
2026-05-08 18:55 52.18085 8.17859 13681 ft 375 kts 99°
2026-05-08 18:55 52.17681 8.22096 14440 ft 380 kts 99°
2026-05-08 18:55 52.17264 8.26368 15188 ft 384 kts 99°
2026-05-08 18:56 52.16838 8.30687 15918 ft 389 kts 99°
2026-05-08 18:56 52.16406 8.35064 16655 ft 393 kts 99°
2026-05-08 18:56 52.15972 8.39479 17358 ft 398 kts 99°
2026-05-08 18:56 52.15532 8.43957 18085 ft 402 kts 99°
2026-05-08 18:57 52.15089 8.48444 18756 ft 407 kts 99°
2026-05-08 18:57 52.14781 8.51545 19212 ft 410 kts 99°
2026-05-08 18:57 52.14173 8.57651 20151 ft 416 kts 99°
2026-05-08 18:57 52.13708 8.62312 20852 ft 420 kts 99°
2026-05-08 18:58 52.13236 8.67028 21525 ft 424 kts 99°
2026-05-08 18:58 52.12758 8.71788 22181 ft 427 kts 99°
2026-05-08 18:58 52.12274 8.76581 22815 ft 431 kts 99°
2026-05-08 18:58 52.11782 8.81415 23433 ft 435 kts 99°
2026-05-08 18:59 52.11281 8.86292 23989 ft 439 kts 99°
2026-05-08 18:59 52.10774 8.91224 24501 ft 443 kts 99°
2026-05-08 18:59 52.10266 8.96177 24964 ft 446 kts 99°
2026-05-08 18:59 52.09759 9.01095 25124 ft 447 kts 99°
2026-05-08 19:00 52.09413 9.04450 25159 ft 447 kts 99°
2026-05-08 19:00 52.08724 9.11053 25164 ft 446 kts 100°
2026-05-08 19:00 52.08199 9.16028 25166 ft 447 kts 100°
2026-05-08 19:00 52.07672 9.21003 25166 ft 447 kts 100°
2026-05-08 19:01 52.07145 9.25976 25165 ft 447 kts 100°
2026-05-08 19:01 52.06619 9.30945 25168 ft 447 kts 100°
2026-05-08 19:01 52.06091 9.35920 25167 ft 447 kts 100°
2026-05-08 19:01 52.05560 9.40899 25172 ft 447 kts 100°
2026-05-08 19:02 52.05029 9.45872 25176 ft 447 kts 100°
2026-05-08 19:02 52.04493 9.50855 25176 ft 447 kts 100°
2026-05-08 19:02 52.03955 9.55827 25181 ft 447 kts 100°
2026-05-08 19:02 52.03413 9.60812 25181 ft 448 kts 100°
2026-05-08 19:03 52.02871 9.65781 25186 ft 448 kts 100°
2026-05-08 19:03 52.02322 9.70764 25183 ft 448 kts 100°
2026-05-08 19:03 52.01773 9.75736 25187 ft 448 kts 100°
2026-05-08 19:03 52.01221 9.80722 25186 ft 448 kts 100°
2026-05-08 19:04 52.00669 9.85701 25189 ft 448 kts 100°
2026-05-08 19:04 52.00113 9.90680 25188 ft 448 kts 101°
2026-05-08 19:04 51.99555 9.95664 25185 ft 448 kts 101°
2026-05-08 19:04 51.98997 10.00650 25189 ft 449 kts 101°
2026-05-08 19:05 51.98440 10.05623 25192 ft 449 kts 101°
2026-05-08 19:05 51.97877 10.10596 25194 ft 449 kts 101°
2026-05-08 19:05 51.97308 10.15581 25202 ft 449 kts 101°
2026-05-08 19:05 51.96738 10.20551 25189 ft 449 kts 101°
2026-05-08 19:06 51.96174 10.25464 25191 ft 449 kts 101°
2026-05-08 19:06 51.95601 10.30439 25190 ft 449 kts 101°
2026-05-08 19:06 51.95018 10.35479 25188 ft 449 kts 101°
2026-05-08 19:06 51.94438 10.40449 25188 ft 449 kts 101°
2026-05-08 19:07 51.93855 10.45422 25186 ft 449 kts 101°
2026-05-08 19:07 51.93283 10.50318 25188 ft 449 kts 101°
2026-05-08 19:07 51.92700 10.55303 25184 ft 449 kts 101°
2026-05-08 19:07 51.92120 10.60263 25183 ft 449 kts 101°
2026-05-08 19:08 51.91533 10.65243 25182 ft 449 kts 101°
2026-05-08 19:08 51.90942 10.70218 25186 ft 449 kts 101°
2026-05-08 19:08 51.90349 10.75192 25183 ft 449 kts 101°
2026-05-08 19:08 51.89754 10.80160 25185 ft 450 kts 101°
2026-05-08 19:09 51.89157 10.85131 25188 ft 450 kts 101°
2026-05-08 19:09 51.88557 10.90090 25187 ft 450 kts 101°
2026-05-08 19:09 51.87830 10.95010 25190 ft 449 kts 109°
2026-05-08 19:09 51.86636 10.99601 25190 ft 448 kts 119°
2026-05-08 19:10 51.84960 11.03834 25190 ft 446 kts 129°
2026-05-08 19:10 51.82868 11.07522 25192 ft 444 kts 139°
2026-05-08 19:10 51.80441 11.10573 25189 ft 442 kts 149°
2026-05-08 19:10 51.77772 11.12989 25191 ft 440 kts 154°
2026-05-08 19:11 51.75058 11.15299 25192 ft 440 kts 154°
2026-05-08 19:11 51.72350 11.17607 25190 ft 440 kts 154°
2026-05-08 19:11 51.69698 11.20093 25192 ft 442 kts 145°